Thermopolis, WY

6:43 PM MDT on April 26, 2017 (GMT -0600)
Thermopolis

Weather History for KTBX - October, 2013

Change the Weather History Date:

Sunday, October 20, 2013

  Actual Average (KWRL) Record (KWRL)
Temperature  
Mean Temperature 36 °F -  
Max Temperature 41 °F 62 °F 80 °F (2003)
Min Temperature 30 °F 30 °F 19 °F (1982)
Degree Days  
Heating Degree Days 30    
Moisture  
Dew Point 30 °F    
Average Humidity 90    
Maximum Humidity 100    
Minimum Humidity 53    
Precipitation  
Precipitation 0.00 in - - ()
Sea Level Pressure  
Sea Level Pressure 30.13 in    
Wind  
Wind Speed 27 mph (NW)    
Max Wind Speed 47 mph    
Max Gust Speed 51 mph    
Visibility 7 miles    
Events Fog , Snow    
Averages and records for this station are not official NWS values.
T = Trace of Precipitation, MM = Missing Value Source: NWS Daily Summary

Daily Weather History Graph

Daily Weather History Graph

Search for Another Location

Airport or City:

Trip Planner

Search our weather history database for the weather conditions in past years. The results will help you decide how hot, cold, wet, or windy it might be!

Date:

Astronomy

Oct. 20, 2013 Rise Set
Actual Time 7:33 AM MDT 6:21 PM MDT
Civil Twilight 7:04 AM MDT 6:50 PM MDT
Nautical Twilight 6:31 AM MDT 7:23 PM MDT
Astronomical Twilight 5:58 AM MDT 7:56 PM MDT
Moon 7:28 PM MDT (10/20) 9:17 AM MDT (10/20)
Length of Visible Light 11h 45m
Length of Day
10h 47m
Full, 97% of the Moon is Illuminated
Oct 20
Full
Oct 26
Last Quarter
Nov 3
New
Nov 9
First Quarter
Nov 17
Full

Hourly Weather History & Observations

Time (MDT) Temp. Windchill Dew Point Humidity Pressure Visibility Wind Dir Wind Speed Gust Speed Precip Events Conditions
12:15 AM 41.0 °F 31.9 °F 24.8 °F 53% 30.07 in 10.0 mi NW 19.6 mph - N/A   Overcast
12:35 AM 39.2 °F 28.5 °F 26.6 °F 61% 30.06 in 10.0 mi WNW 24.2 mph - N/A   Overcast
12:55 AM 39.2 °F 28.5 °F 26.6 °F 61% 30.06 in 10.0 mi NW 24.2 mph - N/A   Overcast
1:15 AM 37.4 °F 25.6 °F 28.4 °F 70% 30.06 in 10.0 mi NW 26.5 mph - N/A   Overcast
1:35 AM 35.6 °F 23.0 °F 28.4 °F 75% 30.06 in 10.0 mi NW 27.6 mph - N/A   Overcast
1:55 AM 33.8 °F 21.3 °F 30.2 °F 87% 30.06 in 10.0 mi NW 24.2 mph - N/A   Overcast
2:15 AM 33.8 °F 21.0 °F 30.2 °F 87% 30.07 in 10.0 mi NW 25.3 mph - N/A   Scattered Clouds
2:35 AM 33.8 °F 19.6 °F 30.2 °F 87% 30.06 in 10.0 mi NNW 32.2 mph - N/A   Clear
2:55 AM 32.0 °F 17.2 °F 30.2 °F 93% 30.06 in 10.0 mi NW 32.2 mph - N/A   Scattered Clouds
3:15 AM 32.0 °F 16.3 °F 32.0 °F 100% 30.06 in 7.0 mi NW 36.8 mph - N/A   Overcast
3:35 AM 32.0 °F 16.7 °F 32.0 °F 100% 30.07 in 0.2 mi NW 34.5 mph - N/A Fog Fog
3:55 AM 32.0 °F 17.2 °F 32.0 °F 100% 30.08 in 0.2 mi NW 32.2 mph - N/A Snow Light Snow
4:15 AM 32.0 °F 17.2 °F 32.0 °F 100% 30.07 in 0.2 mi NW 32.2 mph - N/A Snow Light Snow
4:35 AM 32.0 °F 16.5 °F 32.0 °F 100% 30.08 in 0.2 mi NW 35.7 mph - N/A Snow Snow
4:55 AM 32.0 °F 16.7 °F 32.0 °F 100% 30.08 in - NW 34.5 mph - N/A   Overcast
5:15 AM 32.0 °F 15.4 °F 32.0 °F 100% 30.08 in - NW 42.6 mph - N/A   Overcast
5:35 AM 32.0 °F 16.0 °F 32.0 °F 100% 30.08 in - NW 39.1 mph - N/A   Overcast
5:55 AM 32.0 °F 16.0 °F 30.2 °F 93% 30.08 in - NW 39.1 mph - N/A   Overcast
6:15 AM 30.2 °F 12.9 °F 30.2 °F 100% 30.08 in - WNW 42.6 mph 46.0 mph N/A   Overcast
6:35 AM 30.2 °F 13.7 °F 30.2 °F 100% 30.09 in - WNW 38.0 mph - N/A   Overcast
6:55 AM 30.2 °F 12.5 °F 30.2 °F 100% 30.07 in - WNW 44.9 mph - N/A   Overcast
7:15 AM 30.2 °F 12.7 °F 30.2 °F 100% 30.08 in - WNW 43.7 mph - N/A   Overcast
7:35 AM 30.2 °F 12.2 °F 30.2 °F 100% 30.08 in - WNW 47.2 mph 50.6 mph N/A   Overcast
7:55 AM 30.2 °F 12.5 °F 30.2 °F 100% 30.08 in - WNW 44.9 mph - N/A   Overcast
8:15 AM 30.2 °F 13.1 °F 30.2 °F 100% 30.10 in - WNW 41.4 mph - N/A   Overcast
8:35 AM 30.2 °F 13.7 °F 30.2 °F 100% 30.12 in - WNW 38.0 mph - N/A   Overcast
8:55 AM 30.2 °F 13.5 °F 30.2 °F 100% 30.12 in - WNW 39.1 mph - N/A   Overcast
9:15 AM 30.2 °F 12.7 °F 30.2 °F 100% 30.10 in - WNW 43.7 mph - N/A   Overcast
9:35 AM 30.2 °F 12.7 °F 30.2 °F 100% 30.10 in - WNW 43.7 mph - N/A   Overcast
9:55 AM 30.2 °F 13.1 °F 30.2 °F 100% 30.11 in - WNW 41.4 mph - N/A   Overcast
10:15 AM 30.2 °F 13.3 °F 30.2 °F 100% 30.12 in - WNW 40.3 mph - N/A   Overcast
10:35 AM 32.0 °F 16.3 °F 30.2 °F 93% 30.13 in - WNW 36.8 mph - N/A   Unknown
10:55 AM 32.0 °F 17.0 °F 30.2 °F 93% 30.14 in - WNW 33.4 mph - N/A   Unknown
11:15 AM 32.0 °F 17.4 °F 32.0 °F 100% 30.14 in - WNW 31.1 mph - N/A   Overcast
11:35 AM 32.0 °F 17.6 °F 32.0 °F 100% 30.14 in - WNW 29.9 mph - N/A   Unknown
11:55 AM 32.0 °F 17.6 °F 32.0 °F 100% 30.15 in - WNW 29.9 mph - N/A   Unknown
12:15 PM 32.0 °F 18.1 °F 30.2 °F 93% 30.15 in - WNW 27.6 mph - N/A   Mostly Cloudy
12:35 PM 32.0 °F 18.1 °F 30.2 °F 93% 30.15 in - WNW 27.6 mph - N/A   Overcast
12:55 PM 32.0 °F 17.9 °F 30.2 °F 93% 30.15 in - NW 28.8 mph - N/A   Overcast
1:15 PM 32.0 °F 18.1 °F 32.0 °F 100% 30.15 in - WNW 27.6 mph - N/A   Unknown
1:35 PM 32.0 °F 18.6 °F 32.0 °F 100% 30.15 in - NW 25.3 mph - N/A   Unknown
1:55 PM 32.0 °F 18.4 °F 30.2 °F 93% 30.15 in - NW 26.5 mph - N/A   Unknown
2:15 PM 32.0 °F 18.4 °F 30.2 °F 93% 30.14 in - NW 26.5 mph - N/A   Unknown
2:35 PM 32.0 °F 17.9 °F 30.2 °F 93% 30.14 in - NW 28.8 mph - N/A   Unknown
2:55 PM 33.8 °F 21.0 °F 30.2 °F 87% 30.14 in - NW 25.3 mph - N/A   Scattered Clouds
3:15 PM 33.8 °F 21.0 °F 30.2 °F 87% 30.14 in - NW 25.3 mph - N/A   Scattered Clouds
3:35 PM 33.8 °F 21.3 °F 30.2 °F 87% 30.14 in - NW 24.2 mph - N/A   Mostly Cloudy
3:55 PM 33.8 °F 22.2 °F 30.2 °F 87% 30.14 in - NW 20.7 mph - N/A   Scattered Clouds
4:15 PM 33.8 °F 21.9 °F 30.2 °F 87% 30.15 in - NW 21.9 mph - N/A   Mostly Cloudy
4:35 PM 33.8 °F 21.9 °F 30.2 °F 87% 30.15 in - NW 21.9 mph - N/A   Overcast
4:55 PM 33.8 °F 22.2 °F 30.2 °F 87% 30.16 in - NW 20.7 mph - N/A   Overcast
5:15 PM 33.8 °F 22.5 °F 30.2 °F 87% 30.16 in - NW 19.6 mph - N/A   Mostly Cloudy
5:35 PM 33.8 °F 22.5 °F 30.2 °F 87% 30.16 in - NW 19.6 mph - N/A   Unknown
5:55 PM 32.0 °F 20.8 °F 30.2 °F 93% 30.17 in - NW 17.3 mph - N/A   Unknown
6:15 PM 32.0 °F 20.1 °F 30.2 °F 93% 30.18 in - NW 19.6 mph - N/A   Unknown
6:35 PM 32.0 °F 20.1 °F 28.4 °F 87% 30.18 in - NW 19.6 mph - N/A   Clear
6:55 PM 32.0 °F 20.5 °F 28.4 °F 87% 30.18 in - NNW 18.4 mph - N/A   Unknown
7:15 PM 32.0 °F 21.2 °F 28.4 °F 87% 30.18 in - NNW 16.1 mph - N/A   Clear
7:35 PM 32.0 °F 23.0 °F 28.4 °F 87% 30.18 in - NW 11.5 mph - N/A   Clear
7:55 PM 32.0 °F 23.6 °F 26.6 °F 80% 30.19 in - NW 10.4 mph - N/A   Clear
8:15 PM 32.0 °F 24.2 °F 26.6 °F 80% 30.19 in - NW 9.2 mph - N/A   Clear
8:35 PM 33.8 °F 27.0 °F 26.6 °F 75% 30.20 in - NW 8.1 mph - N/A   Scattered Clouds
8:55 PM 33.8 °F 27.0 °F 26.6 °F 75% 30.20 in - NNW 8.1 mph - N/A   Mostly Cloudy
9:15 PM 33.8 °F 27.0 °F 26.6 °F 75% 30.20 in - NW 8.1 mph - N/A   Mostly Cloudy
9:35 PM 33.8 °F 28.6 °F 26.6 °F 75% 30.20 in - NNW 5.8 mph - N/A   Overcast
9:55 PM 33.8 °F 30.8 °F 26.6 °F 75% 30.20 in - NW 3.5 mph - N/A   Scattered Clouds
10:15 PM 33.8 °F - 26.6 °F 75% 30.20 in - Calm Calm - N/A   Clear
10:35 PM 32.0 °F 25.6 °F 28.4 °F 87% 30.21 in - South 6.9 mph - N/A   Clear
10:55 PM 33.8 °F 25.8 °F 28.4 °F 81% 30.21 in - South 10.4 mph - N/A   Clear
11:15 PM 32.0 °F 24.2 °F 28.4 °F 87% 30.21 in - South 9.2 mph - N/A   Clear
11:35 PM 32.0 °F 23.6 °F 28.4 °F 87% 30.21 in - South 10.4 mph - N/A   Clear
11:55 PM 33.8 °F 25.3 °F 28.4 °F 81% 30.21 in - South 11.5 mph - N/A   Clear